User: anonymous   Login
Location: Unspecified
(0.0000°N, 0.0000°E)
Time: 06:47:57
(UTC+00:00)
Language:

SICH 2 - Orbit

View from above orbital plane
View from above orbital plane
View from above satellite
View from above satellite

Ground track
Ground track

The orbit data is extracted from the following two-line orbital elements,

1 37794U 11044G   17087.90632819 +.00000106 +00000-0 +30552-4 0  9997
2 37794 098.0777 166.0714 0012798 006.6788 111.6683 14.61674189299224
Epoch (UTC): 28 March 2017 21:45:06
Eccentricity: 0.0012798
inclination: 98.0777°
perigee height: 679 km
apogee height: 697 km
right ascension of ascending node: 166.0714°
argument of perigee: 6.6788°
revolutions per day: 14.61674189
mean anomaly at epoch: 111.6683°
orbit number at epoch: 29922

The dashed part of the orbit path shows where the satellite is in the earth's shadow,  

DLR